Port Orchard, Washington, United States (98366)
Lat: 47.54N, Lon: 122.64W
Wx Zone: WAZ508
Local Info
Past Weather Observations for Thursday, April 17, 2014

NOTE: This archive is for the closest National Weather Service station to Port Orchard. Information may differ from the station used for current weather conditions.

Time Weather Temperature Dewpoint Humidity Pressure Winds Precip Visibility
23:55
Clear
36°F / 2°C 36°F / 2°C 100% 29.95 in
(1014 mb)
Calm - 9SM
23:35
Clear
37°F / 3°C 37°F / 3°C 100% 29.95 in
(1014 mb)
Calm - 10SM
23:15
Clear
43°F / 6°C 41°F / 5°C 93% 29.92 in
(1013 mb)
Calm - 10SM
22:55
Clear
39°F / 4°C 39°F / 4°C 100% 29.92 in
(1013 mb)
NW 4.6 mph
(NW 7 kph)
- 10SM
22:35
Clear
39°F / 4°C 39°F / 4°C 100% 29.92 in
(1013 mb)
S 6.9 mph
(S 11 kph)
- 10SM
22:15
Clear
39°F / 4°C 39°F / 4°C 100% 29.92 in
(1013 mb)
Calm - 10SM
21:55
Clear
39°F / 4°C 39°F / 4°C 100% 29.89 in
(1012 mb)
Calm - 10SM
21:35
Clear
43°F / 6°C 43°F / 6°C 100% 29.89 in
(1012 mb)
Calm - 10SM
21:15
Clear
43°F / 6°C 43°F / 6°C 100% 29.86 in
(1011 mb)
Calm - 10SM
20:55
Clear
43°F / 6°C 43°F / 6°C 100% 29.86 in
(1011 mb)
S 4.6 mph
(S 7 kph)
- 10SM
20:35
Clear
43°F / 6°C 43°F / 6°C 100% 29.83 in
(1010 mb)
S 5.8 mph
(S 9 kph)
- 10SM
20:15
Clear
45°F / 7°C 45°F / 7°C 100% 29.83 in
(1010 mb)
S 9.2 mph
(S 15 kph)
- 10SM
19:55
Clear
45°F / 7°C 45°F / 7°C 100% 29.8 in
(1009 mb)
SSE 9.2 mph
(SSE 15 kph)
- 10SM
19:35
Clear
46°F / 8°C 46°F / 8°C 100% 29.8 in
(1009 mb)
S 11.5 mph
(S 19 kph)
- 10SM
19:15
Mostly Cloudy
46°F / 8°C 45°F / 7°C 93% 29.8 in
(1009 mb)
S 10.4 mph
(S 17 kph)
- 10SM
18:55
Overcast
48°F / 9°C 46°F / 8°C 94% 29.77 in
(1008 mb)
S 13.8 mph
(S 22 kph)
- 10SM
18:35
Mostly Cloudy
48°F / 9°C 48°F / 9°C 100% 29.74 in
(1007 mb)
S 9.2 mph
(S 15 kph)
- 10SM
18:15
Mostly Cloudy
50°F / 10°C 50°F / 10°C 100% 29.74 in
(1007 mb)
SSE 6.9 mph
(SSE 11 kph)
- 10SM
17:55
Overcast
48°F / 9°C 48°F / 9°C 100% 29.74 in
(1007 mb)
SE 9.2 mph
(SE 15 kph)
0.07 in
(1.78 mm)
10SM
17:35
Mostly Cloudy
48°F / 9°C 48°F / 9°C 100% 29.77 in
(1008 mb)
S 9.2 mph
(S 15 kph)
0.05 in
(1.27 mm)
10SM
17:15
Mostly Cloudy
48°F / 9°C 48°F / 9°C 100% 29.74 in
(1007 mb)
S 11.5 mph
(S 19 kph)
0.02 in
(0.51 mm)
10SM
16:55
Overcast
50°F / 10°C 50°F / 10°C 100% 29.77 in
(1008 mb)
S 9.2 mph
(S 15 kph)
0.06 in
(1.52 mm)
10SM
16:35
Overcast
50°F / 10°C 50°F / 10°C 100% 29.77 in
(1008 mb)
S 9.2 mph
(S 15 kph)
0.06 in
(1.52 mm)
10SM
16:15
Overcast
48°F / 9°C 48°F / 9°C 100% 29.77 in
(1008 mb)
SSE 11.5 mph
(SSE 19 kph)
0.04 in
(1.02 mm)
9SM
15:55
Overcast
48°F / 9°C 48°F / 9°C 100% 29.77 in
(1008 mb)
S 9.2 mph
(S 15 kph)
0.09 in
(2.29 mm)
10SM
15:35
Mostly Cloudy
48°F / 9°C 48°F / 9°C 100% 29.77 in
(1008 mb)
SSE 9.2 mph
(SSE 15 kph)
0.04 in
(1.02 mm)
10SM
15:15
Overcast
50°F / 10°C 48°F / 9°C 94% 29.8 in
(1009 mb)
S 9.2 mph
(S 15 kph)
0.02 in
(0.51 mm)
10SM
14:55
Overcast
50°F / 10°C 48°F / 9°C 94% 29.8 in
(1009 mb)
S 12.7 mph
(S 20 kph)
0.06 in
(1.52 mm)
10SM
14:35
Overcast
52°F / 11°C 52°F / 11°C 100% 29.8 in
(1009 mb)
S 11.5 mph
(S 19 kph)
0.02 in
(0.51 mm)
10SM
14:15
Overcast
50°F / 10°C 48°F / 9°C 94% 29.8 in
(1009 mb)
S 13.8 mph
(S 22 kph)
0.01 in
(0.25 mm)
8SM
13:55
Mostly Cloudy
52°F / 11°C 52°F / 11°C 100% 29.8 in
(1009 mb)
S 11.5 mph
(S 19 kph)
0.01 in
(0.25 mm)
10SM
13:35
Mostly Cloudy
54°F / 12°C 52°F / 11°C 94% 29.83 in
(1010 mb)
SSE 17.3 mph
(SSE 28 kph)
0.01 in
(0.25 mm)
10SM
13:15
Overcast
52°F / 11°C 50°F / 10°C 94% 29.83 in
(1010 mb)
S 15 mph
(S 24 kph)
- 10SM
12:55
Overcast
52°F / 11°C 52°F / 11°C 100% 29.83 in
(1010 mb)
SSE 11.5 mph
(SSE 19 kph)
0.06 in
(1.52 mm)
8SM
12:35
Mostly Cloudy
52°F / 11°C 52°F / 11°C 100% 29.83 in
(1010 mb)
S 10.4 mph
(S 17 kph)
- 10SM
12:15
Mostly Cloudy
52°F / 11°C 52°F / 11°C 100% 29.83 in
(1010 mb)
S 9.2 mph
(S 15 kph)
- 10SM
11:55
Mostly Cloudy
52°F / 11°C 52°F / 11°C 100% 29.83 in
(1010 mb)
SSE 15 mph
(SSE 24 kph)
- 10SM
11:35
Mostly Cloudy
52°F / 11°C 52°F / 11°C 100% 29.83 in
(1010 mb)
SW 13.8 mph
(SW 22 kph)
- 10SM
11:15
Mostly Cloudy
52°F / 11°C 52°F / 11°C 100% 29.83 in
(1010 mb)
SW 12.7 mph
(SW 20 kph)
- 10SM
10:55
Overcast
52°F / 11°C 50°F / 10°C 94% 29.83 in
(1010 mb)
SW 12.7 mph
(SW 20 kph)
0.02 in
(0.51 mm)
10SM
10:35
Overcast
52°F / 11°C 52°F / 11°C 100% 29.86 in
(1011 mb)
S 13.8 mph
(S 22 kph)
0.01 in
(0.25 mm)
10SM
10:15
Overcast
52°F / 11°C 52°F / 11°C 100% 29.86 in
(1011 mb)
S 12.7 mph
(S 20 kph)
0.01 in
(0.25 mm)
10SM
09:55
Overcast
52°F / 11°C 50°F / 10°C 94% 29.86 in
(1011 mb)
SSE 11.5 mph
(SSE 19 kph)
0.06 in
(1.52 mm)
10SM
09:35
Overcast
50°F / 10°C 50°F / 10°C 100% 29.86 in
(1011 mb)
SW 10.4 mph
(SW 17 kph)
0.04 in
(1.02 mm)
10SM
09:15
Overcast
52°F / 11°C 52°F / 11°C 100% 29.83 in
(1010 mb)
S 11.5 mph
(S 19 kph)
0.01 in
(0.25 mm)
10SM
08:55
Overcast
50°F / 10°C 50°F / 10°C 100% 29.83 in
(1010 mb)
S 11.5 mph
(S 19 kph)
0.05 in
(1.27 mm)
10SM
08:35
Overcast
50°F / 10°C 50°F / 10°C 100% 29.86 in
(1011 mb)
SSE 12.7 mph
(SSE 20 kph)
0.04 in
(1.02 mm)
10SM
08:15
Overcast
50°F / 10°C 50°F / 10°C 100% 29.86 in
(1011 mb)
S 12.7 mph
(S 20 kph)
0.02 in
(0.51 mm)
10SM
07:55
Overcast
50°F / 10°C 48°F / 9°C 94% 29.86 in
(1011 mb)
S 10.4 mph
(S 17 kph)
0.05 in
(1.27 mm)
10SM
07:35
Overcast
50°F / 10°C 48°F / 9°C 94% 29.89 in
(1012 mb)
S 8.1 mph
(S 13 kph)
0.04 in
(1.02 mm)
10SM
07:15
Overcast
48°F / 9°C 48°F / 9°C 100% 29.89 in
(1012 mb)
S 4.6 mph
(S 7 kph)
0.03 in
(0.76 mm)
8SM
06:55
Mostly Cloudy
48°F / 9°C 48°F / 9°C 100% 29.89 in
(1012 mb)
S 3.5 mph
(S 6 kph)
0.11 in
(2.79 mm)
4SM
06:35
Overcast
48°F / 9°C 48°F / 9°C 100% 29.89 in
(1012 mb)
S 3.5 mph
(S 6 kph)
0.06 in
(1.52 mm)
4SM
06:15
Overcast
48°F / 9°C 48°F / 9°C 100% 29.89 in
(1012 mb)
S 3.5 mph
(S 6 kph)
0.02 in
(0.51 mm)
5SM
05:55
Mostly Cloudy
48°F / 9°C 48°F / 9°C 100% 29.89 in
(1012 mb)
S 5.8 mph
(S 9 kph)
0.03 in
(0.76 mm)
9SM
05:35
Mostly Cloudy
48°F / 9°C 48°F / 9°C 100% 29.89 in
(1012 mb)
S 5.8 mph
(S 9 kph)
0.02 in
(0.51 mm)
9SM
05:15
Overcast
48°F / 9°C 48°F / 9°C 100% 29.89 in
(1012 mb)
S 5.8 mph
(S 9 kph)
0.01 in
(0.25 mm)
10SM
04:55
Overcast
48°F / 9°C 48°F / 9°C 100% 29.89 in
(1012 mb)
S 8.1 mph
(S 13 kph)
0.01 in
(0.25 mm)
10SM
04:35
Overcast
48°F / 9°C 48°F / 9°C 100% 29.92 in
(1013 mb)
S 9.2 mph
(S 15 kph)
0.01 in
(0.25 mm)
10SM
04:15
Mostly Cloudy
48°F / 9°C 48°F / 9°C 100% 29.92 in
(1013 mb)
S 9.2 mph
(S 15 kph)
- 10SM
03:55
Overcast
48°F / 9°C 48°F / 9°C 100% 29.92 in
(1013 mb)
S 8.1 mph
(S 13 kph)
- 10SM
03:35
Overcast
48°F / 9°C 48°F / 9°C 100% 29.92 in
(1013 mb)
Calm - 10SM
03:15
Overcast
48°F / 9°C 48°F / 9°C 100% 29.92 in
(1013 mb)
SW 6.9 mph
(SW 11 kph)
- 10SM
02:55
Overcast
48°F / 9°C 48°F / 9°C 100% 29.92 in
(1013 mb)
SW 11.5 mph
(SW 19 kph)
- 10SM
02:35
Overcast
48°F / 9°C 48°F / 9°C 100% 29.92 in
(1013 mb)
S 12.7 mph
(S 20 kph)
- 10SM
02:15
Overcast
48°F / 9°C 48°F / 9°C 100% 29.92 in
(1013 mb)
S 15 mph
(S 24 kph)
- 10SM
01:55
Overcast
48°F / 9°C 48°F / 9°C 100% 29.92 in
(1013 mb)
SSE 12.7 mph
(SSE 20 kph)
- 10SM
01:35
Overcast
48°F / 9°C 48°F / 9°C 100% 29.92 in
(1013 mb)
S 12.7 mph
(S 20 kph)
- 8SM
01:15
Overcast
48°F / 9°C 48°F / 9°C 100% 29.92 in
(1013 mb)
S 11.5 mph
(S 19 kph)
- 8SM
00:55
Overcast
48°F / 9°C 48°F / 9°C 100% 29.95 in
(1014 mb)
S 15 mph
(S 24 kph)
0.01 in
(0.25 mm)
10SM
00:35
Overcast
48°F / 9°C 48°F / 9°C 100% 29.95 in
(1014 mb)
S 12.7 mph
(S 20 kph)
0.01 in
(0.25 mm)
9SM
00:15
Overcast
48°F / 9°C 48°F / 9°C 100% 29.95 in
(1014 mb)
S 15 mph
(S 24 kph)
- 10SM
Time Weather Temperature Dewpoint Humidity Pressure Winds Precip Visibility


Weather for websites

WeatherForYou.com, LLC is not responsible for any damages or problems caused by this service. Current weather conditions are obtained from the closest station including government and personal stations which may have varying degrees of accuracy. Weather forecasts are derived from the NOAA NDFD. Like all things, this site belongs to Jesus Christ... He just trusts me to maintain it. If you have any questions or comments email webmaster@weatherforyou.com

Copyright © 2014, WeatherForYou.com LLC. All rights reserved.